Terug naar catalogus

ZHIJIANG-2

ActiefWetenschapSSO
NORAD 63983·PAYLOAD·🇨🇳 China
Deze satellietnaam is nog niet bevestigd door officiële bronnen.

Gelanceerd May 14, 2025 vanaf Jiuquan Satellite Launch Center

Loading…

Volgende Passages (komende 24 uur)

TLE

VersSource: Space-Track

Epoch: Sep 14, 2026, 22:07 UTC

1 63983U 25100B   26257.92186037  .00034715  00000-0  77274-3 0  9995
2 63983  97.3556 335.6602 0007009 335.4168  24.6744 15.43529361 74734

Volg ZHIJIANG-2 in realtime met AllMySat

Download on the App Store